BFL5570 CYOP-CYFS

Flight info

Callsign BFL5570
Flight time 1h 23m
Altitude 5000
Route YFS
Aircraft C310/L-SDFGR/S

Departure

Time 2026-05-03 20:24
Airport Rainbow Lake Airport (CYOP)

Arrival

Time 2026-05-03 21:47
Airport Fort Simpson Airport (CYFS)
Time Latitude Longitude Altitude Speed Heading
2026-05-03 20:15 58.49345 -119.41378 1759 ft 0 kts 206°
2026-05-03 20:16 58.49345 -119.41377 1759 ft 0 kts 206°
2026-05-03 20:17 58.49336 -119.41385 1760 ft 5 kts 205°
2026-05-03 20:17 58.49267 -119.41429 1746 ft 14 kts 175°
2026-05-03 20:17 58.49208 -119.41238 1741 ft 22 kts 116°
2026-05-03 20:17 58.49170 -119.41095 1747 ft 0 kts 118°
2026-05-03 20:18 58.49165 -119.41080 1747 ft 6 kts 117°
2026-05-03 20:18 58.49131 -119.40950 1746 ft 6 kts 112°
2026-05-03 20:18 58.49131 -119.40947 1746 ft 2 kts 112°
2026-05-03 20:18 58.49110 -119.40856 1744 ft 11 kts 116°
2026-05-03 20:19 58.49073 -119.40694 1746 ft 8 kts 106°
2026-05-03 20:19 58.49071 -119.40680 1743 ft 0 kts 106°
2026-05-03 20:20 58.49055 -119.40621 1742 ft 10 kts 120°
2026-05-03 20:20 58.49012 -119.40482 1746 ft 14 kts 117°
2026-05-03 20:21 58.48963 -119.40282 1742 ft 18 kts 116°
2026-05-03 20:21 58.48910 -119.40086 1747 ft 16 kts 117°
2026-05-03 20:21 58.48868 -119.39910 1743 ft 13 kts 115°
2026-05-03 20:21 58.48825 -119.39778 1745 ft 11 kts 124°
2026-05-03 20:22 58.48788 -119.39660 1750 ft 10 kts 112°
2026-05-03 20:22 58.48805 -119.39663 1749 ft 0 kts 287°
2026-05-03 20:22 58.48811 -119.39693 1742 ft 18 kts 296°
2026-05-03 20:23 58.48973 -119.40327 1742 ft 80 kts 296°
2026-05-03 20:23 58.49222 -119.41377 1959 ft 91 kts 300°
2026-05-03 20:23 58.49502 -119.42610 2129 ft 109 kts 288°
2026-05-03 20:23 58.49737 -119.44094 2282 ft 120 kts 290°
2026-05-03 20:24 58.50075 -119.45440 2585 ft 111 kts 310°
2026-05-03 20:24 58.50651 -119.46508 2744 ft 116 kts 328°
2026-05-03 20:24 58.51329 -119.47233 3096 ft 106 kts 329°
2026-05-03 20:24 58.51911 -119.48081 3355 ft 112 kts 322°
2026-05-03 20:25 58.52588 -119.48763 3631 ft 108 kts 346°
2026-05-03 20:25 58.53320 -119.48712 3868 ft 111 kts
2026-05-03 20:25 58.54082 -119.48238 4044 ft 117 kts 14°
2026-05-03 20:25 58.54799 -119.47666 4422 ft 107 kts 15°
2026-05-03 20:26 58.55489 -119.46968 4581 ft 120 kts 22°
2026-05-03 20:26 58.56309 -119.46618 4613 ft 126 kts 345°
2026-05-03 20:26 58.57167 -119.47159 4673 ft 133 kts 342°
2026-05-03 20:26 58.58111 -119.47525 4607 ft 144 kts 351°
2026-05-03 20:27 58.59132 -119.47738 4545 ft 149 kts 352°
2026-05-03 20:27 58.59822 -119.47887 4519 ft 151 kts 351°
2026-05-03 20:27 58.60862 -119.48147 4497 ft 150 kts 350°
2026-05-03 20:27 58.61889 -119.48459 4493 ft 150 kts 349°
2026-05-03 20:28 58.62917 -119.48794 4477 ft 149 kts 348°
2026-05-03 20:28 58.63932 -119.49130 4490 ft 147 kts 348°
2026-05-03 20:28 58.64933 -119.49550 4505 ft 147 kts 344°
2026-05-03 20:28 58.65912 -119.50074 4495 ft 146 kts 343°
2026-05-03 20:29 58.66887 -119.50601 4482 ft 144 kts 344°
2026-05-03 20:29 58.67851 -119.51095 4483 ft 142 kts 343°
2026-05-03 20:29 58.68805 -119.51596 4491 ft 143 kts 344°
2026-05-03 20:29 58.69753 -119.52098 4491 ft 142 kts 344°
2026-05-03 20:30 58.70710 -119.52593 4496 ft 143 kts 344°
2026-05-03 20:30 58.71669 -119.53099 4496 ft 143 kts 343°
2026-05-03 20:30 58.72627 -119.53603 4498 ft 142 kts 343°
2026-05-03 20:30 58.73582 -119.54105 4495 ft 142 kts 343°
2026-05-03 20:31 58.74540 -119.54606 4495 ft 143 kts 343°
2026-05-03 20:31 58.75505 -119.55116 4509 ft 145 kts 343°
2026-05-03 20:31 58.76467 -119.55628 4493 ft 142 kts 344°
2026-05-03 20:31 58.77419 -119.56122 4487 ft 141 kts 343°
2026-05-03 20:32 58.78362 -119.56614 4492 ft 140 kts 343°
2026-05-03 20:32 58.79296 -119.57118 4499 ft 140 kts 343°
2026-05-03 20:32 58.80236 -119.57608 4492 ft 140 kts 343°
2026-05-03 20:32 58.81175 -119.58107 4497 ft 140 kts 343°
2026-05-03 20:33 58.82104 -119.58598 4498 ft 140 kts 344°
2026-05-03 20:33 58.83044 -119.59087 4498 ft 140 kts 343°
2026-05-03 20:33 58.83984 -119.59586 4494 ft 141 kts 343°
2026-05-03 20:33 58.84927 -119.60093 4488 ft 141 kts 343°
2026-05-03 20:34 58.85871 -119.60590 4490 ft 140 kts 343°
2026-05-03 20:34 58.86813 -119.61079 4493 ft 140 kts 343°
2026-05-03 20:34 58.87752 -119.61582 4492 ft 140 kts 343°
2026-05-03 20:34 58.88689 -119.62084 4490 ft 140 kts 344°
2026-05-03 20:35 58.89636 -119.62584 4489 ft 144 kts 344°
2026-05-03 20:35 58.90618 -119.63098 4500 ft 148 kts 344°
2026-05-03 20:35 58.91620 -119.63636 4496 ft 151 kts 344°
2026-05-03 20:35 58.92634 -119.64175 4493 ft 152 kts 344°
2026-05-03 20:36 58.93662 -119.64715 4496 ft 153 kts 343°
2026-05-03 20:36 58.94692 -119.65270 4488 ft 154 kts 343°
2026-05-03 20:36 58.95725 -119.65821 4490 ft 154 kts 344°
2026-05-03 20:36 58.96753 -119.66362 4491 ft 154 kts 344°
2026-05-03 20:37 58.97785 -119.66916 4495 ft 153 kts 344°
2026-05-03 20:37 58.98816 -119.67462 4499 ft 154 kts 344°
2026-05-03 20:37 58.99848 -119.68011 4495 ft 154 kts 344°
2026-05-03 20:37 59.00885 -119.68576 4488 ft 154 kts 345°
2026-05-03 20:38 59.01922 -119.69116 4503 ft 155 kts 344°
2026-05-03 20:38 59.02947 -119.69668 4499 ft 155 kts 343°
2026-05-03 20:38 59.03987 -119.70229 4501 ft 156 kts 344°
2026-05-03 20:38 59.05031 -119.70787 4498 ft 156 kts 343°
2026-05-03 20:39 59.06077 -119.71343 4502 ft 156 kts 343°
2026-05-03 20:39 59.07127 -119.71910 4497 ft 156 kts 343°
2026-05-03 20:39 59.08176 -119.72476 4507 ft 157 kts 344°
2026-05-03 20:39 59.09234 -119.73034 4498 ft 157 kts 343°
2026-05-03 20:40 59.10280 -119.73606 4500 ft 156 kts 344°
2026-05-03 20:40 59.11330 -119.74166 4497 ft 155 kts 343°
2026-05-03 20:40 59.12369 -119.74721 4497 ft 155 kts 343°
2026-05-03 20:40 59.13406 -119.75285 4501 ft 154 kts 344°
2026-05-03 20:41 59.14441 -119.75840 4504 ft 154 kts 343°
2026-05-03 20:41 59.15464 -119.76391 4506 ft 155 kts 344°
2026-05-03 20:41 59.16504 -119.76953 4518 ft 156 kts 344°
2026-05-03 20:41 59.17551 -119.77511 4512 ft 156 kts 344°
2026-05-03 20:42 59.18606 -119.78084 4518 ft 158 kts 344°
2026-05-03 20:42 59.19667 -119.78660 4502 ft 158 kts 344°
2026-05-03 20:42 59.20724 -119.79233 4498 ft 157 kts 344°
2026-05-03 20:42 59.21772 -119.79793 4490 ft 156 kts 343°
2026-05-03 20:43 59.22814 -119.80361 4489 ft 154 kts 344°
2026-05-03 20:43 59.23840 -119.80919 4497 ft 153 kts 345°
2026-05-03 20:43 59.24872 -119.81466 4499 ft 153 kts 344°
2026-05-03 20:43 59.25894 -119.82028 4501 ft 153 kts 343°
2026-05-03 20:44 59.26918 -119.82584 4500 ft 153 kts 344°
2026-05-03 20:44 59.27945 -119.83141 4499 ft 153 kts 344°
2026-05-03 20:44 59.28971 -119.83698 4498 ft 153 kts 344°
2026-05-03 20:44 59.29996 -119.84255 4494 ft 153 kts 344°
2026-05-03 20:45 59.31018 -119.84811 4504 ft 153 kts 344°
2026-05-03 20:45 59.32030 -119.85359 4508 ft 153 kts 343°
2026-05-03 20:45 59.33056 -119.85924 4503 ft 153 kts 344°
2026-05-03 20:45 59.34080 -119.86480 4499 ft 153 kts 343°
2026-05-03 20:46 59.35105 -119.87033 4508 ft 153 kts 343°
2026-05-03 20:46 59.36136 -119.87602 4511 ft 154 kts 343°
2026-05-03 20:46 59.37174 -119.88165 4508 ft 155 kts 343°
2026-05-03 20:46 59.38214 -119.88739 4514 ft 156 kts 344°
2026-05-03 20:47 59.39267 -119.89310 4509 ft 158 kts 344°
2026-05-03 20:47 59.40327 -119.89885 4502 ft 158 kts 344°
2026-05-03 20:47 59.41383 -119.90471 4507 ft 158 kts 344°
2026-05-03 20:47 59.42446 -119.91049 4503 ft 159 kts 344°
2026-05-03 20:48 59.43509 -119.91634 4516 ft 159 kts 345°
2026-05-03 20:48 59.44580 -119.92215 4514 ft 160 kts 344°
2026-05-03 20:48 59.45656 -119.92809 4498 ft 160 kts 345°
2026-05-03 20:48 59.46726 -119.93398 4501 ft 159 kts 344°
2026-05-03 20:49 59.47789 -119.93977 4506 ft 159 kts 344°
2026-05-03 20:49 59.48855 -119.94571 4508 ft 159 kts 345°
2026-05-03 20:49 59.49919 -119.95149 4503 ft 158 kts 345°
2026-05-03 20:49 59.50970 -119.95727 4505 ft 157 kts 345°
2026-05-03 20:50 59.52020 -119.96312 4503 ft 157 kts 345°
2026-05-03 20:50 59.53054 -119.96878 4509 ft 156 kts 345°
2026-05-03 20:50 59.54110 -119.97460 4505 ft 156 kts 344°
2026-05-03 20:50 59.55139 -119.98030 4500 ft 155 kts 344°
2026-05-03 20:51 59.56175 -119.98599 4520 ft 154 kts 344°
2026-05-03 20:51 59.57214 -119.99178 4520 ft 156 kts 345°
2026-05-03 20:51 59.58265 -119.99758 4527 ft 157 kts 344°
2026-05-03 20:51 59.59320 -120.00338 4509 ft 157 kts 344°
2026-05-03 20:52 59.60375 -120.00924 4523 ft 158 kts 344°
2026-05-03 20:52 59.61437 -120.01512 4523 ft 158 kts 344°
2026-05-03 20:52 59.62493 -120.02099 4510 ft 157 kts 344°
2026-05-03 20:52 59.63546 -120.02681 4512 ft 157 kts 344°
2026-05-03 20:53 59.64593 -120.03267 4499 ft 156 kts 345°
2026-05-03 20:53 59.65637 -120.03838 4505 ft 155 kts 344°
2026-05-03 20:53 59.66679 -120.04424 4508 ft 156 kts 344°
2026-05-03 20:53 59.67722 -120.05007 4513 ft 156 kts 345°
2026-05-03 20:54 59.68769 -120.05583 4514 ft 156 kts 345°
2026-05-03 20:54 59.70881 -120.06760 4510 ft 157 kts 344°
2026-05-03 20:54 59.71928 -120.07345 4505 ft 156 kts 345°
2026-05-03 20:55 59.72978 -120.07934 4510 ft 157 kts 345°
2026-05-03 20:55 59.74027 -120.08513 4509 ft 156 kts 345°
2026-05-03 20:55 59.75058 -120.09088 4507 ft 156 kts 344°
2026-05-03 20:55 59.76113 -120.09686 4502 ft 155 kts 344°
2026-05-03 20:56 59.77151 -120.10268 4501 ft 154 kts 345°
2026-05-03 20:56 59.78174 -120.10835 4521 ft 156 kts 345°
2026-05-03 20:56 59.79225 -120.11423 4526 ft 157 kts 345°
2026-05-03 20:56 59.80271 -120.12018 4506 ft 156 kts 345°
2026-05-03 20:57 59.81322 -120.12594 4520 ft 156 kts 345°
2026-05-03 20:57 59.82364 -120.13191 4515 ft 156 kts 345°
2026-05-03 20:57 59.83406 -120.13777 4516 ft 156 kts 345°
2026-05-03 20:57 59.84450 -120.14357 4502 ft 155 kts 345°
2026-05-03 20:58 59.85486 -120.14940 4517 ft 155 kts 345°
2026-05-03 20:58 59.86521 -120.15525 4516 ft 155 kts 345°
2026-05-03 20:58 59.87562 -120.16107 4511 ft 155 kts 345°
2026-05-03 20:58 59.88598 -120.16697 4520 ft 155 kts 345°
2026-05-03 20:59 59.89640 -120.17275 4519 ft 156 kts 345°
2026-05-03 20:59 59.90681 -120.17865 4519 ft 156 kts 345°
2026-05-03 20:59 59.91724 -120.18465 4524 ft 156 kts 345°
2026-05-03 20:59 59.92775 -120.19048 4525 ft 157 kts 345°
2026-05-03 21:00 59.93818 -120.19638 4527 ft 158 kts 345°
2026-05-03 21:00 59.94177 -120.19841 4523 ft 158 kts 344°
2026-05-03 21:00 59.95931 -120.20840 4514 ft 158 kts 344°
2026-05-03 21:00 59.96994 -120.21436 4521 ft 158 kts 344°
2026-05-03 21:01 59.98048 -120.22037 4523 ft 158 kts 344°
2026-05-03 21:01 59.99115 -120.22646 4529 ft 160 kts 344°
2026-05-03 21:01 60.00186 -120.23253 4517 ft 160 kts 345°
2026-05-03 21:01 60.01249 -120.23851 4514 ft 158 kts 345°
2026-05-03 21:02 60.02311 -120.24458 4525 ft 159 kts 345°
2026-05-03 21:02 60.03381 -120.25059 4528 ft 160 kts 344°
2026-05-03 21:02 60.04450 -120.25677 4525 ft 161 kts 344°
2026-05-03 21:02 60.05526 -120.26289 4517 ft 160 kts 344°
2026-05-03 21:03 60.06597 -120.26895 4516 ft 160 kts 344°
2026-05-03 21:03 60.07669 -120.27508 4517 ft 160 kts 345°
2026-05-03 21:03 60.08676 -120.28080 4516 ft 160 kts 345°
2026-05-03 21:03 60.09745 -120.28698 4524 ft 160 kts 345°
2026-05-03 21:04 60.10821 -120.29298 4515 ft 161 kts 344°
2026-05-03 21:04 60.11890 -120.29922 4518 ft 160 kts 344°
2026-05-03 21:04 60.12887 -120.30493 4521 ft 160 kts 344°
2026-05-03 21:04 60.13958 -120.31101 4512 ft 160 kts 344°
2026-05-03 21:05 60.15022 -120.31712 4521 ft 159 kts 344°
2026-05-03 21:05 60.16075 -120.32317 4522 ft 159 kts 343°
2026-05-03 21:05 60.17137 -120.32924 4519 ft 159 kts 344°
2026-05-03 21:05 60.18194 -120.33536 4508 ft 157 kts 344°
2026-05-03 21:06 60.19241 -120.34132 4517 ft 156 kts 344°
2026-05-03 21:06 60.20288 -120.34739 4522 ft 157 kts 343°
2026-05-03 21:06 60.21334 -120.35335 4516 ft 156 kts 343°
2026-05-03 21:06 60.22388 -120.35950 4522 ft 156 kts 344°
2026-05-03 21:07 60.23433 -120.36543 4523 ft 156 kts 344°
2026-05-03 21:07 60.24470 -120.37143 4528 ft 158 kts 344°
2026-05-03 21:07 60.25532 -120.37755 4534 ft 160 kts 343°
2026-05-03 21:07 60.26608 -120.38380 4534 ft 162 kts 343°
2026-05-03 21:08 60.27694 -120.39005 4530 ft 163 kts 344°
2026-05-03 21:08 60.28784 -120.39633 4529 ft 164 kts 343°
2026-05-03 21:08 60.29876 -120.40267 4518 ft 163 kts 344°
2026-05-03 21:08 60.30964 -120.40900 4530 ft 163 kts 343°
2026-05-03 21:09 60.32057 -120.41523 4521 ft 163 kts 344°
2026-05-03 21:09 60.33149 -120.42162 4536 ft 163 kts 343°
2026-05-03 21:09 60.34245 -120.42798 4526 ft 164 kts 343°
2026-05-03 21:09 60.35341 -120.43432 4522 ft 164 kts 343°
2026-05-03 21:10 60.36416 -120.44054 4522 ft 162 kts 343°
2026-05-03 21:10 60.37498 -120.44685 4519 ft 161 kts 343°
2026-05-03 21:10 60.38574 -120.45313 4525 ft 161 kts 343°
2026-05-03 21:10 60.39647 -120.45936 4526 ft 160 kts 343°
2026-05-03 21:11 60.40721 -120.46562 4529 ft 161 kts 343°
2026-05-03 21:11 60.41800 -120.47195 4531 ft 162 kts 343°
2026-05-03 21:11 60.42877 -120.47817 4520 ft 161 kts 343°
2026-05-03 21:11 60.43954 -120.48450 4520 ft 161 kts 343°
2026-05-03 21:12 60.45037 -120.49076 4525 ft 161 kts 343°
2026-05-03 21:12 60.46119 -120.49710 4533 ft 163 kts 343°
2026-05-03 21:12 60.47208 -120.50359 4542 ft 164 kts 343°
2026-05-03 21:12 60.48314 -120.50987 4529 ft 165 kts 343°
2026-05-03 21:13 60.49415 -120.51641 4523 ft 165 kts 343°
2026-05-03 21:13 60.50517 -120.52277 4525 ft 164 kts 344°
2026-05-03 21:13 60.51604 -120.52932 4518 ft 162 kts 342°
2026-05-03 21:13 60.52324 -120.53350 4513 ft 161 kts 344°
2026-05-03 21:14 60.53404 -120.53986 4526 ft 162 kts 343°
2026-05-03 21:14 60.54489 -120.54623 4529 ft 164 kts 343°
2026-05-03 21:14 60.55953 -120.55482 4532 ft 166 kts 343°
2026-05-03 21:14 60.56705 -120.55920 4532 ft 167 kts 343°
2026-05-03 21:15 60.57826 -120.56582 4535 ft 168 kts 343°
2026-05-03 21:15 60.58951 -120.57244 4527 ft 168 kts 343°
2026-05-03 21:15 60.60072 -120.57906 4538 ft 168 kts 343°
2026-05-03 21:15 60.61186 -120.58566 4534 ft 166 kts 343°
2026-05-03 21:16 60.62295 -120.59217 4529 ft 165 kts 343°
2026-05-03 21:16 60.63389 -120.59865 4530 ft 163 kts 344°
2026-05-03 21:16 60.64478 -120.60509 4525 ft 162 kts 344°
2026-05-03 21:16 60.65565 -120.61148 4531 ft 162 kts 344°
2026-05-03 21:17 60.66641 -120.61790 4529 ft 161 kts 343°
2026-05-03 21:17 60.67727 -120.62432 4529 ft 163 kts 344°
2026-05-03 21:17 60.68814 -120.63075 4533 ft 163 kts 343°
2026-05-03 21:17 60.69904 -120.63723 4532 ft 163 kts 343°
2026-05-03 21:18 60.70982 -120.64367 4541 ft 164 kts 343°
2026-05-03 21:18 60.72078 -120.65015 4541 ft 164 kts 343°
2026-05-03 21:18 60.73174 -120.65663 4534 ft 164 kts 343°
2026-05-03 21:18 60.74268 -120.66318 4533 ft 164 kts 343°
2026-05-03 21:19 60.75361 -120.66970 4531 ft 164 kts 343°
2026-05-03 21:19 60.76457 -120.67623 4533 ft 164 kts 343°
2026-05-03 21:19 60.77552 -120.68274 4532 ft 164 kts 343°
2026-05-03 21:19 60.78645 -120.68932 4534 ft 163 kts 343°
2026-05-03 21:20 60.79740 -120.69580 4530 ft 164 kts 343°
2026-05-03 21:20 60.80817 -120.70224 4527 ft 162 kts 343°
2026-05-03 21:20 60.81910 -120.70881 4525 ft 161 kts 343°
2026-05-03 21:20 60.82975 -120.71512 4534 ft 162 kts 342°
2026-05-03 21:21 60.84063 -120.72168 4540 ft 164 kts 343°
2026-05-03 21:21 60.85160 -120.72838 4551 ft 166 kts 342°
2026-05-03 21:21 60.86279 -120.73488 4531 ft 167 kts 343°
2026-05-03 21:21 60.87393 -120.74159 4523 ft 166 kts 342°
2026-05-03 21:22 60.88499 -120.74828 4529 ft 166 kts 342°
2026-05-03 21:22 60.89609 -120.75504 4529 ft 166 kts 343°
2026-05-03 21:22 60.90716 -120.76154 4521 ft 165 kts 342°
2026-05-03 21:22 60.91815 -120.76827 4525 ft 165 kts 342°
2026-05-03 21:23 60.92914 -120.77496 4543 ft 165 kts 342°
2026-05-03 21:23 60.94026 -120.78149 4528 ft 166 kts 342°
2026-05-03 21:23 60.95137 -120.78828 4529 ft 166 kts 343°
2026-05-03 21:23 60.96245 -120.79496 4531 ft 166 kts 342°
2026-05-03 21:24 60.97358 -120.80166 4539 ft 167 kts 343°
2026-05-03 21:24 60.98471 -120.80842 4534 ft 167 kts 342°
2026-05-03 21:24 60.99581 -120.81511 4531 ft 166 kts 342°
2026-05-03 21:24 61.00688 -120.82186 4533 ft 166 kts 343°
2026-05-03 21:25 61.01795 -120.82853 4536 ft 166 kts 342°
2026-05-03 21:25 61.02901 -120.83523 4534 ft 166 kts 343°
2026-05-03 21:25 61.04012 -120.84199 4532 ft 167 kts 343°
2026-05-03 21:25 61.05125 -120.84871 4536 ft 167 kts 342°
2026-05-03 21:26 61.06211 -120.85534 4528 ft 167 kts 342°
2026-05-03 21:26 61.07327 -120.86214 4534 ft 167 kts 342°
2026-05-03 21:26 61.08441 -120.86891 4534 ft 167 kts 342°
2026-05-03 21:26 61.09554 -120.87570 4525 ft 166 kts 342°
2026-05-03 21:27 61.10663 -120.88241 4536 ft 166 kts 342°
2026-05-03 21:27 61.11766 -120.88917 4534 ft 166 kts 342°
2026-05-03 21:27 61.12875 -120.89596 4530 ft 166 kts 342°
2026-05-03 21:27 61.13982 -120.90270 4535 ft 166 kts 342°
2026-05-03 21:28 61.15088 -120.90951 4536 ft 166 kts 342°
2026-05-03 21:28 61.16198 -120.91624 4538 ft 166 kts 342°
2026-05-03 21:28 61.17310 -120.92302 4540 ft 167 kts 342°
2026-05-03 21:28 61.18426 -120.92991 4538 ft 168 kts 342°
2026-05-03 21:29 61.19547 -120.93676 4531 ft 168 kts 342°
2026-05-03 21:29 61.20662 -120.94361 4530 ft 167 kts 342°
2026-05-03 21:29 61.21780 -120.95047 4530 ft 167 kts 342°
2026-05-03 21:29 61.22898 -120.95730 4529 ft 167 kts 342°
2026-05-03 21:30 61.24013 -120.96418 4532 ft 167 kts 342°
2026-05-03 21:30 61.25111 -120.97100 4528 ft 167 kts 342°
2026-05-03 21:30 61.26221 -120.97779 4535 ft 166 kts 342°
2026-05-03 21:30 61.27330 -120.98467 4537 ft 166 kts 343°
2026-05-03 21:31 61.28444 -120.99145 4535 ft 167 kts 343°
2026-05-03 21:31 61.29554 -120.99827 4528 ft 166 kts 342°
2026-05-03 21:31 61.30664 -121.00521 4531 ft 166 kts 342°
2026-05-03 21:31 61.31774 -121.01203 4532 ft 166 kts 342°
2026-05-03 21:32 61.32885 -121.01894 4540 ft 167 kts 343°
2026-05-03 21:32 61.34005 -121.02587 4531 ft 168 kts 342°
2026-05-03 21:32 61.35128 -121.03275 4535 ft 168 kts 342°
2026-05-03 21:32 61.36246 -121.03975 4525 ft 168 kts 342°
2026-05-03 21:33 61.37364 -121.04672 4530 ft 167 kts 342°
2026-05-03 21:33 61.38477 -121.05364 4532 ft 167 kts 342°
2026-05-03 21:33 61.39590 -121.06051 4531 ft 167 kts 342°
2026-05-03 21:33 61.40702 -121.06743 4536 ft 167 kts 342°
2026-05-03 21:34 61.41800 -121.07429 4534 ft 167 kts 342°
2026-05-03 21:34 61.42922 -121.08127 4535 ft 169 kts 343°
2026-05-03 21:34 61.44055 -121.08825 4533 ft 169 kts 342°
2026-05-03 21:34 61.45182 -121.09531 4523 ft 169 kts 342°
2026-05-03 21:35 61.46307 -121.10235 4520 ft 168 kts 342°
2026-05-03 21:35 61.47426 -121.10930 4527 ft 168 kts 342°
2026-05-03 21:35 61.48545 -121.11634 4529 ft 168 kts 342°
2026-05-03 21:35 61.49666 -121.12334 4535 ft 168 kts 342°
2026-05-03 21:36 61.50786 -121.13031 4530 ft 168 kts 342°
2026-05-03 21:36 61.51911 -121.13744 4530 ft 169 kts 343°
2026-05-03 21:36 61.53039 -121.14445 4527 ft 168 kts 343°
2026-05-03 21:36 61.54157 -121.15146 4517 ft 168 kts 342°
2026-05-03 21:37 61.55272 -121.15848 4518 ft 167 kts 342°
2026-05-03 21:37 61.56369 -121.16537 4522 ft 166 kts 342°
2026-05-03 21:37 61.57475 -121.17239 4524 ft 167 kts 342°
2026-05-03 21:37 61.58587 -121.17930 4528 ft 166 kts 342°
2026-05-03 21:38 61.59699 -121.18631 4542 ft 168 kts 342°
2026-05-03 21:38 61.60831 -121.19350 4540 ft 170 kts 342°
2026-05-03 21:38 61.61970 -121.20063 4536 ft 170 kts 343°
2026-05-03 21:38 61.63067 -121.20788 4504 ft 152 kts 338°
2026-05-03 21:39 61.63975 -121.21417 4487 ft 124 kts 338°
2026-05-03 21:39 61.64731 -121.21905 4477 ft 106 kts 339°
2026-05-03 21:39 61.65410 -121.22316 4489 ft 97 kts 339°
2026-05-03 21:39 61.66047 -121.22692 4508 ft 93 kts 340°
2026-05-03 21:40 61.66661 -121.23037 4523 ft 87 kts 348°
2026-05-03 21:40 61.67209 -121.23269 4415 ft 76 kts 343°
2026-05-03 21:40 61.67726 -121.23589 4223 ft 86 kts 344°
2026-05-03 21:40 61.68301 -121.24021 4481 ft 93 kts 343°
2026-05-03 21:41 61.68966 -121.24442 4683 ft 104 kts 344°
2026-05-03 21:41 61.69709 -121.24921 4746 ft 121 kts 343°
2026-05-03 21:41 61.70587 -121.25494 4654 ft 142 kts 341°
2026-05-03 21:41 61.71554 -121.26156 4749 ft 144 kts 346°
2026-05-03 21:42 61.72514 -121.26059 4970 ft 141 kts 14°
2026-05-03 21:42 61.73353 -121.24819 4920 ft 155 kts 39°
2026-05-03 21:42 61.74080 -121.23259 4819 ft 149 kts 38°
2026-05-03 21:42 61.74822 -121.21722 4592 ft 153 kts 42°
2026-05-03 21:43 61.75581 -121.20186 4420 ft 150 kts 37°
2026-05-03 21:43 61.76296 -121.18526 4172 ft 157 kts 50°
2026-05-03 21:43 61.76674 -121.16322 4042 ft 162 kts 79°
2026-05-03 21:43 61.76437 -121.14076 4081 ft 158 kts 112°
2026-05-03 21:44 61.75716 -121.12090 3611 ft 184 kts 136°
2026-05-03 21:44 61.74642 -121.10800 3706 ft 170 kts 160°
2026-05-03 21:44 61.73520 -121.10437 3605 ft 163 kts 187°
2026-05-03 21:44 61.72533 -121.11126 3643 ft 138 kts 220°
2026-05-03 21:45 61.71925 -121.12664 3311 ft 140 kts 256°
2026-05-03 21:45 61.71873 -121.14644 3097 ft 137 kts 277°
2026-05-03 21:45 61.72042 -121.16666 2813 ft 140 kts 302°
2026-05-03 21:45 61.72577 -121.18399 2569 ft 142 kts 301°
2026-05-03 21:46 61.72932 -121.20267 2281 ft 133 kts 300°
2026-05-03 21:46 61.73493 -121.21764 1608 ft 127 kts 335°
2026-05-03 21:46 61.74277 -121.22252 1196 ft 111 kts 345°
2026-05-03 21:46 61.74956 -121.22715 751 ft 98 kts 339°
2026-05-03 21:47 61.75513 -121.23213 577 ft 74 kts 339°
2026-05-03 21:47 61.75851 -121.23505 557 ft 21 kts 335°
2026-05-03 21:47 61.75986 -121.23626 557 ft 20 kts 340°
2026-05-03 21:47 61.76069 -121.23520 557 ft 15 kts 90°
2026-05-03 21:48 61.76053 -121.23342 560 ft 13 kts 149°
2026-05-03 21:48 61.75975 -121.23316 557 ft 11 kts 178°
2026-05-03 21:48 61.75919 -121.23246 558 ft 8 kts 135°
2026-05-03 21:48 61.75909 -121.23183 562 ft 0 kts 76°
2026-05-03 21:52 61.75909 -121.23184 562 ft 0 kts 76°